Location: Willingham
(52.3167°N, 0.0667°E)
Time: 18:04:11
(UTC+00:00)

Lacrosse 5 rocket - Pass Details

Date: 19 May 2025
Orbit: 419 x 515 km, 57.0° (Epoch: 23 June)

Event Time Altitude Azimuth Distance (km) Brightness Sun altitude
Rises 21:22:37 0° 295° (WNW) 2,493 5.9 -10.4°
Reaches altitude 10° 21:24:57 10° 285° (WNW) 1,595 4.5 -10.6°
Maximum altitude 21:28:04 29° 224° (SW) 845 2.2 -10.9°
Enters shadow 21:30:18 15° 170° (S) 1,266 2.6 -11.0°
